Location: Sudbury
(46.5221°N, 80.9530°W)
Time: 15:52:40
(UTC-04:00)

ISS - Visible Passes

Search period start: 20 May 2025 00:00
Search period end: 30 May 2025 00:00
Orbit: 416 x 419 km, 51.6° (Epoch: 20 May)

Date Brightness Start Highest point End Pass type
(mag) Time Alt. Az. Time Alt. Az. Time Alt. Az.
20 May -2.4 00:05:46 10° WNW 00:07:50 31° W 00:07:50 31° W visible
20 May -2.4 21:40:54 10° WNW 21:44:03 37° N 21:47:13 10° E visible
20 May -3.9 23:17:41 10° WNW 23:21:02 73° SSW 23:21:26 63° SSE visible
21 May -3.7 22:29:38 10° WNW 22:32:59 77° NNE 22:35:03 21° ESE visible
22 May -1.4 00:06:55 10° W 00:07:57 15° WSW 00:07:57 15° WSW visible
22 May -3.2 21:41:34 10° WNW 21:44:53 55° NNE 21:48:11 10° E visible
22 May -2.7 23:18:31 10° WNW 23:21:32 31° SW 23:21:35 31° SW visible
23 May -3.3 22:30:17 10° WNW 22:33:33 48° SW 22:35:14 24° SSE visible
24 May -3.7 21:42:08 10° WNW 21:45:30 76° SSW 21:48:49 10° SE visible
24 May -1.4 23:20:07 10° WSW 23:21:46 13° SW 23:21:48 13° SW visible
25 May -1.9 22:31:16 10° W 22:33:50 21° SW 22:35:31 15° S visible
26 May -2.5 21:42:49 10° WNW 21:45:52 32° SW 21:48:53 10° SSE visible
28 May -1.2 21:44:12 10° WSW 21:45:58 14° SW 21:47:45 10° SSW visible
